RH
16 17 19 20 21 20 22 22 24 25 27 27 28 30 27 29 28 29 30 32 34 35 38 39 40 38 27 26 26 22 22 22 21 19 18 19 20 20 18 17 16 13 13 11
18 20 19 19 19 19 21 23 23 25 27 26 29 31 29 28 29 30 30 33 35 36 39 40 41 41 30 29 28 24 24 23 22 20 21 21 20 20 20 18 15 13 12 11
19 18 17 18 19 20 19 22 23 23 23 27 27 31 28 28 29 30 31 33 35 37 39 40 42 42 32 31 28 27 26 24 21 21 21 19 19 19 19 18 15 15 14 14
18 17 17 18 17 18 18 17 19 21 21 26 26 33 28 28 29 30 31 34 36 39 40 41 43 43 33 30 31 28 25 25 24 24 23 22 22 22 22 18 16 15 16 16
18 17 17 17 17 16 15 13 13 17 20 19 25 27 26 28 31 30 31 33 37 40 41 42 46 39 32 32 33 28 27 27 28 28 26 25 23 23 20 17 17 16 17 18
18 17 16 17 17 15 15 15 17 17 16 18 16 26 26 29 26 29 31 33 38 41 41 45 45 37 34 35 33 29 30 30 31 29 27 24 24 23 21 19 19 18 18 19
18 18 16 16 16 15 16 16 22 22 24 25 21 25 23 25 26 28 30 34 38 40 41 44 42 36 37 36 32 32 32 32 33 29 26 24 23 22 22 21 22 22 20 22
21 21 17 17 16 16 16 18 24 22 27 25 20 24 26 26 26 28 31 35 37 39 43 45 39 39 39 35 33 35 35 35 34 28 27 25 22 22 21 22 22 22 24 25
20 19 18 17 16 16 17 18 18 20 22 23 23 27 25 28 28 29 32 34 37 39 42 41 40 42 38 36 37 37 38 36 33 29 28 25 23 22 21 22 24 25 27 28
20 21 19 18 17 16 17 19 21 24 21 27 26 30 28 28 29 31 32 35 37 40 41 41 43 43 38 39 38 40 39 35 33 31 30 27 23 21 23 24 24 26 26 29
19 20 19 18 18 17 19 19 21 23 28 26 27 25 27 29 27 27 30 33 36 38 41 43 46 41 42 42 40 41 37 38 36 34 30 26 22 23 25 25 25 25 26 30
20 23 22 20 19 20 21 22 23 29 27 34 35 33 29 28 25 27 30 34 37 39 43 45 45 43 48 43 41 40 40 40 38 35 31 26 23 25 26 25 25 26 30 33
21 24 26 24 24 25 23 23 25 28 30 31 34 29 30 28 26 27 31 35 39 42 44 45 45 50 47 43 42 41 43 41 40 35 31 27 25 27 25 24 23 28 31 29
23 26 27 30 29 30 27 26 25 28 33 31 35 30 31 29 28 30 33 38 40 42 43 46 50 52 47 44 42 43 44 44 43 36 30 27 27 26 24 21 22 29 28 23
26 29 30 33 32 30 28 29 29 29 30 30 29 28 27 27 29 33 36 39 41 41 47 49 54 51 48 43 44 46 45 47 44 37 29 27 25 23 20 18 23 25 22 21
31 35 34 38 38 35 35 35 35 33 33 34 33 31 29 29 31 36 37 39 41 47 48 53 53 50 45 45 47 48 49 49 43 32 26 26 23 20 16 20 23 20 18 20
36 41 43 39 42 39 39 39 37 35 34 33 31 28 30 30 32 36 39 41 45 46 52 52 51 48 45 48 49 50 50 49 36 28 26 26 25 18 17 22 20 15 17 17
40 44 47 50 43 44 39 40 38 37 38 37 36 34 32 34 37 39 41 44 45 51 51 49 50 46 49 49 50 50 51 42 31 26 27 26 26 18 22 21 13 14 14 15
41 47 56 54 55 45 41 41 39 38 40 42 40 40 38 38 40 41 42 44 48 50 50 50 48 48 49 50 51 52 47 33 28 28 26 28 22 23 24 16 13 13 12 14
45 47 50 62 58 54 44 40 37 35 42 42 45 46 42 40 41 41 45 48 50 50 50 48 48 49 49 51 50 47 35 29 27 27 25 26 22 26 23 14 13 12 11 13
52 55 59 65 64 55 44 40 40 46 48 44 43 43 42 42 42 47 50 48 48 48 47 48 49 49 50 49 47 39 30 26 26 27 27 22 25 25 18 15 13 11 10 12
57 63 66 65 64 55 46 46 45 49 51 48 47 44 43 45 49 49 45 46 48 47 49 50 50 50 49 48 37 32 28 26 27 25 24 23 26 23 18 15 13 10 9 10
55 55 58 59 56 49 47 46 48 53 53 51 47 45 47 50 50 44 45 46 48 50 51 50 50 49 47 43 36 31 27 26 27 22 23 25 26 20 18 15 13 10 8 8
54 55 57 55 50 50 51 52 53 58 57 52 50 51 55 52 43 44 45 49 51 51 52 52 50 45 46 44 36 30 27 25 22 20 23 26 23 20 18 16 13 11 9 8
60 58 57 54 54 54 52 54 58 60 59 55 55 58 54 47 43 46 49 50 50 53 53 50 44 45 49 43 32 26 23 23 17 21 24 26 21 21 19 17 15 13 11 9
57 56 57 57 53 53 56 60 63 63 59 58 59 54 46 43 46 49 49 51 53 55 51 44 44 48 47 36 26 22 19 19 18 23 25 24 22 21 19 18 16 14 11 9